Back to catalog

FENGYUN 1C DEB

LostSSO
NORAD 32449·DEBRIS·🇨🇳 China

Launched May 10, 1999 from Taiyuan Satellite Launch Center

Loading…

Next Passes (next 24 hours)

TLE

StaleSource: Space-Track

Epoch: Mar 9, 2011, 16:25 UTC

1 32449U 99025DBM 11068.68469795 +.00003586 +00000-0 +26030-2 0  9992
2 32449 099.2663 030.4816 0346132 208.1092 147.0464 13.72029686185387

Track FENGYUN 1C DEB in real time with AllMySat

Download on the App Store